This demonstration page uses our WeatherBlox Daily Observations layout. Learn more.

Left ArrowRight Arrow

Hourly Observations for May 16, 2017

Temp ( °F °C ) Dew Point ( °F °C ) Humidity (%) Winds ( mph kmh ) Pressure ( in mb ) Visibility ( mi km ) Precip ( " mm )
12:53 am 00:53 Clear 66 18.9 63 17.2 90 90 Calm 29.99 1016 10 16 0.00 0.00
1:53 am 01:53 Clear 65 18.3 63 17.2 93 93 Calm 29.99 1016 10 16 0.00 0.00
2:53 am 02:53 Clear 64 17.8 63 17.2 96 96 Calm 29.98 1015 10 16 0.00 0.00
3:53 am 03:53 Clear 63 17.2 62 16.7 97 97 Calm 29.99 1016 10 16 0.00 0.00
4:53 am 04:53 Clear 62 16.7 61 16.1 96 96 Calm 30.00 1016 10 16 0.00 0.00
5:53 am 05:53 Clear 61 16.1 61 16.1 100 100 Calm 30.02 1017 10 16 0.00 0.00
6:53 am 06:53 Sunny 60 15.6 60 15.6 100 100 Calm 30.04 1017 10 16 0.00 0.00
7:53 am 07:53 Sunny 65 18.3 63 17.2 93 93 Calm 30.06 1018 10 16 0.00 0.00
8:53 am 08:53 Sunny 72 22.2 65 18.3 79 79 Calm 30.06 1018 10 16 0.00 0.00
9:53 am 09:53 Sunny 78 25.6 64 17.8 62 62 Calm 30.07 1018 10 16 0.00 0.00
10:53 am 10:53 Sunny 82 27.8 61 16.1 49 49 VRB 6 9 30.06 1018 10 16 0.00 0.00
11:53 am 11:53 Sunny 84 28.9 59 15 43 43 VRB 7 11 30.07 1018 10 16 0.00 0.00
12:53 pm 12:53 Sunny 86 30 62 16.7 45 45 VRB 5 7 30.05 1018 10 16 0.00 0.00
1:53 pm 13:53 Sunny 87 30.6 60 15.6 40 40 S 12 19 30.04 1017 10 16 0.00 0.00
2:53 pm 14:53 Sunny 88 31.1 59 15 38 38 VRB 3 6 30.02 1017 10 16 0.00 0.00
3:53 pm 15:53 Mostly Sunny 89 31.7 57 13.9 34 34 SSW 9 15 30.01 1016 10 16 0.00 0.00
4:53 pm 16:53 Sunny 90 32.2 56 13.3 32 32 SE 5 7 30.00 1016 10 16 0.00 0.00
5:53 pm 17:53 Sunny 90 32.2 57 13.9 33 33 S 9 15 29.99 1016 10 16 0.00 0.00
6:53 pm 18:53 Sunny 88 31.1 57 13.9 35 35 S 6 9 30.00 1016 10 16 0.00 0.00
7:53 pm 19:53 Sunny 87 30.6 58 14.4 37 37 S 6 9 30.00 1016 10 16 0.00 0.00
8:53 pm 20:53 Clear 84 28.9 60 15.6 44 44 SSE 6 9 30.01 1016 10 16 0.00 0.00
9:53 pm 21:53 Clear 82 27.8 60 15.6 47 47 SE 6 9 30.01 1016 10 16 0.00 0.00
10:53 pm 22:53 Clear 80 26.7 60 15.6 51 51 SSE 6 9 30.02 1017 10 16 0.00 0.00
11:53 pm 23:53 Clear 69 20.6 63 17.2 81 81 NW 3 6 30.02 1017 10 16 0.00 0.00

Powered by AerisWeather